,,,PA_Meas_PMT16A,,PR_Meas_QMR101_102,,RH_Meas_QMH101,,SR_Meas_QMS101,,TA_Meas_QMH101,,GenWind,,GenWind,
date,time,status,PA,status,PR,status,RH,status,SR,status,TA,status,DirAvg,status,SpdAvg,
2014-06-09, 00:00:04,VALID,1006.41,VALID,0,INVALID,110.024,VALID,0,VALID,25.4677,VALID,30,VALID,0.215625,
2014-06-09, 00:01:04,VALID,1006.4,VALID,0,INVALID,110.07,VALID,0,VALID,25.4891,VALID,30,VALID,0.215625,
2014-06-09, 00:02:04,VALID,1006.42,VALID,0,INVALID,110.116,VALID,0,VALID,25.4482,VALID,30,VALID,0.328125,
2014-06-09, 00:03:04,VALID,1006.42,VALID,0,INVALID,110.116,VALID,0,VALID,25.4482,VALID,30,VALID,0,
2014-06-09, 00:04:04,VALID,1006.44,VALID,0,INVALID,110.146,VALID,0,VALID,25.4482,VALID,30,VALID,0.114063,
2014-06-09, 00:05:04,VALID,1006.48,VALID,0,INVALID,110.185,VALID,0,VALID,25.4482,VALID,30,VALID,0.628125,
2014-06-09, 00:06:04,VALID,1006.5,VALID,0,INVALID,110.185,VALID,0,VALID,25.4482,VALID,30,VALID,0.636719,
2014-06-09, 00:07:04,VALID,1006.54,VALID,0,INVALID,110.192,VALID,0,VALID,25.4501,VALID,30,VALID,0.270312,
2014-06-09, 00:08:04,VALID,1006.55,VALID,0,INVALID,110.146,VALID,0,VALID,25.4696,VALID,30,VALID,0.540234,
2014-06-09, 00:09:04,VALID,1006.55,VALID,0,INVALID,110.23,VALID,0,VALID,25.4287,VALID,30,VALID,0.684375,
2014-06-09, 00:10:04,VALID,1006.58,VALID,0,INVALID,110.23,VALID,0,VALID,25.4306,VALID,31,VALID,0.590625,
2014-06-09, 00:11:04,VALID,1006.58,VALID,0,INVALID,110.246,VALID,0,VALID,25.4287,VALID,31,VALID,0.651563,
2014-06-09, 00:12:04,VALID,1006.57,VALID,0,INVALID,110.253,VALID,0,VALID,25.4306,VALID,31,VALID,0.364844,
2014-06-09, 00:13:04,VALID,1006.56,VALID,0,INVALID,110.284,VALID,0,VALID,25.4306,VALID,31,VALID,0.371875,
2014-06-09, 00:14:04,VALID,1006.56,VALID,0,INVALID,110.299,VALID,0,VALID,25.4092,VALID,31,VALID,0.442578,
2014-06-09, 00:15:04,VALID,1006.54,VALID,0,INVALID,110.307,VALID,0,VALID,25.4287,VALID,31,VALID,0.446094,
2014-06-09, 00:16:04,VALID,1006.54,VALID,0,INVALID,110.314,VALID,0,VALID,25.4501,VALID,31,VALID,0.796094,
2014-06-09, 00:17:04,VALID,1006.54,VALID,0,INVALID,110.314,VALID,0,VALID,25.4287,VALID,31,VALID,0.700781,
2014-06-09, 00:18:04,VALID,1006.53,VALID,0,INVALID,110.314,VALID,0,VALID,25.4677,VALID,55,VALID,1.01641,
2014-06-09, 00:19:04,VALID,1006.54,VALID,0,INVALID,110.322,VALID,0,VALID,25.4696,VALID,95,VALID,0.905859,
2014-06-09, 00:20:04,VALID,1006.51,VALID,0,INVALID,110.352,VALID,0,VALID,25.4482,VALID,95,VALID,1.26328,
2014-06-09, 00:21:04,VALID,1006.52,VALID,0,INVALID,110.383,VALID,0,VALID,25.4482,VALID,101,VALID,1.0043,
2014-06-09, 00:22:04,VALID,1006.5,VALID,0,INVALID,110.413,VALID,0,VALID,25.4891,VALID,99,VALID,1.60469,
2014-06-09, 00:23:04,VALID,1006.44,VALID,0,INVALID,110.406,VALID,0,VALID,25.4677,VALID,75,VALID,0.856641,
2014-06-09, 00:24:04,VALID,1006.44,VALID,0,INVALID,110.413,VALID,0,VALID,25.4871,VALID,75,VALID,0.478125,
2014-06-09, 00:25:04,VALID,1006.42,VALID,0,INVALID,110.406,VALID,0,VALID,25.5066,VALID,75,VALID,0.517578,
2014-06-09, 00:26:04,VALID,1006.39,VALID,0,INVALID,110.421,VALID,0,VALID,25.5066,VALID,75,VALID,0.632031,
2014-06-09, 00:27:04,VALID,1006.34,VALID,0,INVALID,110.413,VALID,0,VALID,25.5066,VALID,75,VALID,0.304688,
2014-06-09, 00:28:04,VALID,1006.32,VALID,0,INVALID,110.444,VALID,0,VALID,25.5066,VALID,75,VALID,0.213672,
2014-06-09, 00:29:04,VALID,1006.27,VALID,0,INVALID,110.429,VALID,0,VALID,25.5281,VALID,75,VALID,0.419922,
2014-06-09, 00:30:04,VALID,1006.22,VALID,0,INVALID,110.429,VALID,0,VALID,25.4871,VALID,75,VALID,0.220703,
2014-06-09, 00:31:04,VALID,1006.17,VALID,0,INVALID,110.421,VALID,0,VALID,25.4871,VALID,75,VALID,0.0457031,
2014-06-09, 00:32:04,VALID,1006.13,VALID,0,INVALID,110.436,VALID,0,VALID,25.5066,VALID,75,VALID,0,
2014-06-09, 00:33:04,VALID,1006.13,VALID,0,INVALID,110.436,VALID,0,VALID,25.5066,VALID,75,VALID,0.00078125,
2014-06-09, 00:34:04,VALID,1006.12,VALID,0,INVALID,110.421,VALID,0,VALID,25.5066,VALID,75,VALID,0.478125,
2014-06-09, 00:35:04,VALID,1006.1,VALID,0,INVALID,110.444,VALID,0,VALID,25.5066,VALID,75,VALID,0.596484,
2014-06-09, 00:36:04,VALID,1006.12,VALID,0,INVALID,110.451,VALID,0,VALID,25.5086,VALID,75,VALID,0.726563,
2014-06-09, 00:37:04,VALID,1006.14,VALID,0,INVALID,110.474,VALID,0,VALID,25.4677,VALID,75,VALID,0.494922,
2014-06-09, 00:38:04,VALID,1006.17,VALID,0,INVALID,110.474,VALID,0,VALID,25.4871,VALID,75,VALID,0.714844,
2014-06-09, 00:39:04,VALID,1006.18,VALID,0,INVALID,110.467,VALID,0,VALID,25.4871,VALID,75,VALID,0.569531,
2014-06-09, 00:40:04,VALID,1006.21,VALID,0,INVALID,110.482,VALID,0,VALID,25.4891,VALID,75,VALID,0.792578,
2014-06-09, 00:41:04,VALID,1006.21,VALID,0,INVALID,110.52,VALID,0,VALID,25.4677,VALID,75,VALID,0.832812,
2014-06-09, 00:42:04,VALID,1006.27,VALID,0,INVALID,110.535,VALID,0,VALID,25.4871,VALID,75,VALID,0.780078,
2014-06-09, 00:43:04,VALID,1006.31,VALID,0,INVALID,110.558,VALID,0,VALID,25.4891,VALID,75,VALID,0.581641,
2014-06-09, 00:44:04,VALID,1006.34,VALID,0,INVALID,110.558,VALID,0,VALID,25.4677,VALID,75,VALID,0.491016,
2014-06-09, 00:45:04,VALID,1006.37,VALID,0,INVALID,110.566,VALID,0,VALID,25.4482,VALID,109,VALID,1.14336,
2014-06-09, 00:46:04,VALID,1006.4,VALID,0,INVALID,110.581,VALID,0,VALID,25.4696,VALID,109,VALID,0.736328,
2014-06-09, 00:47:04,VALID,1006.44,VALID,0,INVALID,110.558,VALID,0,VALID,25.4287,VALID,109,VALID,0.0289063,
2014-06-09, 00:48:04,VALID,1006.47,VALID,0,INVALID,110.535,VALID,0,VALID,25.4482,VALID,109,VALID,0,
2014-06-09, 00:49:04,VALID,1006.53,VALID,0,INVALID,110.573,VALID,0,VALID,25.4482,VALID,109,VALID,0,
2014-06-09, 00:50:04,VALID,1006.57,VALID,0,INVALID,110.558,VALID,0,VALID,25.4677,VALID,109,VALID,0,
2014-06-09, 00:51:04,VALID,1006.57,VALID,0,INVALID,110.566,VALID,0,VALID,25.4287,VALID,109,VALID,0.0105469,
2014-06-09, 00:52:04,VALID,1006.58,VALID,0,INVALID,110.581,VALID,0,VALID,25.4092,VALID,109,VALID,0,
2014-06-09, 00:53:04,VALID,1006.57,VALID,0,INVALID,110.589,VALID,0,VALID,25.4092,VALID,109,VALID,0,
2014-06-09, 00:54:04,VALID,1006.57,VALID,0,INVALID,110.573,VALID,0,VALID,25.4306,VALID,109,VALID,0,
2014-06-09, 00:55:04,VALID,1006.54,VALID,0,INVALID,110.612,VALID,0,VALID,25.3897,VALID,109,VALID,0,
2014-06-09, 00:56:04,VALID,1006.52,VALID,0,INVALID,110.589,VALID,0,VALID,25.4092,VALID,109,VALID,0,
2014-06-09, 00:57:04,VALID,1006.46,VALID,0,INVALID,110.619,VALID,0,VALID,25.3897,VALID,109,VALID,0,
2014-06-09, 00:58:04,VALID,1006.46,VALID,0,INVALID,110.589,VALID,0,VALID,25.3916,VALID,109,VALID,0,
2014-06-09, 00:59:04,VALID,1006.46,VALID,0,INVALID,110.612,VALID,0,VALID,25.3702,VALID,109,VALID,0,
2014-06-09, 01:00:04,VALID,1006.46,VALID,0,INVALID,110.627,VALID,0,VALID,25.3526,VALID,108,VALID,0.432422,
2014-06-09, 01:01:04,VALID,1006.46,VALID,0,INVALID,110.573,VALID,0,VALID,25.3526,VALID,108,VALID,0.337891,
2014-06-09, 01:02:04,VALID,1006.42,VALID,0,INVALID,110.589,VALID,0,VALID,25.3312,VALID,108,VALID,0.441016,
2014-06-09, 01:03:04,VALID,1006.41,VALID,0,INVALID,110.581,VALID,0,VALID,25.3312,VALID,108,VALID,0.407031,
2014-06-09, 01:04:04,VALID,1006.39,VALID,0,INVALID,110.566,VALID,0,VALID,25.3117,VALID,108,VALID,0.609766,
2014-06-09, 01:05:04,VALID,1006.39,VALID,0,INVALID,110.566,VALID,0,VALID,25.3331,VALID,108,VALID,0.594922,
2014-06-09, 01:06:04,VALID,1006.39,VALID,0,INVALID,110.551,VALID,0,VALID,25.3117,VALID,108,VALID,0.692187,
2014-06-09, 01:07:04,VALID,1006.34,VALID,0,INVALID,110.573,VALID,0,VALID,25.2922,VALID,108,VALID,0.419141,
2014-06-09, 01:08:04,VALID,1006.36,VALID,0,INVALID,110.619,VALID,0,VALID,25.2922,VALID,108,VALID,0.394922,
2014-06-09, 01:09:04,VALID,1006.34,VALID,0,INVALID,110.596,VALID,0,VALID,25.2941,VALID,39,VALID,0.803125,
2014-06-09, 01:10:04,VALID,1006.32,VALID,0,INVALID,110.596,VALID,0,VALID,25.2532,VALID,34,VALID,0.687109,
2014-06-09, 01:11:04,VALID,1006.3,VALID,0,INVALID,110.604,VALID,0,VALID,25.2337,VALID,34,VALID,0.583203,
2014-06-09, 01:12:04,VALID,1006.29,VALID,0,INVALID,110.634,VALID,0,VALID,25.2337,VALID,34,VALID,0.0632813,
2014-06-09, 01:13:04,VALID,1006.31,VALID,0,INVALID,110.634,VALID,0,VALID,25.2337,VALID,34,VALID,0.502734,
2014-06-09, 01:14:04,VALID,1006.3,VALID,0.5,INVALID,110.634,VALID,0,VALID,25.2746,VALID,81,VALID,1.04805,
2014-06-09, 01:15:04,VALID,1006.29,VALID,0,INVALID,110.657,VALID,0,VALID,25.2551,VALID,81,VALID,1.24141,
2014-06-09, 01:16:04,VALID,1006.28,VALID,0,INVALID,110.673,VALID,0,VALID,25.2532,VALID,99,VALID,1.26953,
2014-06-09, 01:17:04,VALID,1006.23,VALID,0,INVALID,110.688,VALID,0,VALID,25.2727,VALID,98,VALID,1.07344,
2014-06-09, 01:18:04,VALID,1006.22,VALID,0,INVALID,110.734,VALID,0,VALID,25.2727,VALID,73,VALID,1.69492,
2014-06-09, 01:19:04,VALID,1006.2,VALID,0,INVALID,110.726,VALID,0,VALID,25.2532,VALID,96,VALID,1.89609,
2014-06-09, 01:20:04,VALID,1006.16,VALID,0,INVALID,110.703,VALID,0,VALID,25.2337,VALID,95,VALID,1.91055,
2014-06-09, 01:21:04,VALID,1006.15,VALID,0,INVALID,110.711,VALID,0,VALID,25.2356,VALID,66,VALID,1.79453,
2014-06-09, 01:22:04,VALID,1006.16,VALID,0,INVALID,110.695,VALID,0,VALID,25.1947,VALID,75,VALID,1.45156,
2014-06-09, 01:23:04,VALID,1006.15,VALID,0,INVALID,110.665,VALID,0,VALID,25.1947,VALID,66,VALID,1.58945,
2014-06-09, 01:24:04,VALID,1006.15,VALID,0,INVALID,110.657,VALID,0,VALID,25.1752,VALID,75,VALID,1.34766,
2014-06-09, 01:25:04,VALID,1006.12,VALID,0,INVALID,110.657,VALID,0,VALID,25.1557,VALID,65,VALID,1.10977,
2014-06-09, 01:26:04,VALID,1006.11,VALID,0,INVALID,110.619,VALID,0,VALID,25.1576,VALID,75,VALID,1.71445,
2014-06-09, 01:27:04,VALID,1006.1,VALID,0,INVALID,110.657,VALID,0,VALID,25.1771,VALID,75,VALID,2.25898,
2014-06-09, 01:28:04,VALID,1006.07,VALID,0,INVALID,110.634,VALID,0,VALID,25.1362,VALID,72,VALID,2.04219,
2014-06-09, 01:29:04,VALID,1006.09,VALID,0,INVALID,110.627,VALID,0,VALID,25.1362,VALID,79,VALID,2.25859,
2014-06-09, 01:30:04,VALID,1006.05,VALID,0,INVALID,110.612,VALID,0,VALID,25.1362,VALID,81,VALID,1.61914,
2014-06-09, 01:31:04,VALID,1006.04,VALID,0,INVALID,110.657,VALID,0,VALID,25.1557,VALID,84,VALID,1.65937,
2014-06-09, 01:32:04,VALID,1005.99,VALID,0,INVALID,110.65,VALID,0,VALID,25.1167,VALID,81,VALID,1.69336,
2014-06-09, 01:33:04,VALID,1006,VALID,0,INVALID,110.604,VALID,0,VALID,25.1167,VALID,66,VALID,1.875,
2014-06-09, 01:34:04,VALID,1005.95,VALID,0,INVALID,110.634,VALID,0,VALID,25.1167,VALID,84,VALID,1.97812,
2014-06-09, 01:35:04,VALID,1005.95,VALID,0,INVALID,110.627,VALID,0,VALID,25.1187,VALID,81,VALID,2.04688,
2014-06-09, 01:36:04,VALID,1005.93,VALID,0,INVALID,110.612,VALID,0,VALID,25.1167,VALID,97,VALID,1.50508,
2014-06-09, 01:37:04,VALID,1005.85,VALID,0,INVALID,110.657,VALID,0,VALID,25.1167,VALID,99,VALID,2.23633,
2014-06-09, 01:38:04,VALID,1005.81,VALID,0,INVALID,110.65,VALID,0,VALID,25.1362,VALID,114,VALID,1.37344,
2014-06-09, 01:39:04,VALID,1005.78,VALID,0,INVALID,110.688,VALID,0,VALID,25.1167,VALID,77,VALID,0.405078,
2014-06-09, 01:40:04,VALID,1005.75,VALID,0,INVALID,110.695,VALID,0,VALID,25.1187,VALID,80,VALID,1.15117,
2014-06-09, 01:41:04,VALID,1005.76,VALID,0,INVALID,110.68,VALID,0,VALID,25.0992,VALID,87,VALID,1.48828,
2014-06-09, 01:42:04,VALID,1005.73,VALID,0,INVALID,110.665,VALID,0,VALID,25.0797,VALID,83,VALID,0.889453,
2014-06-09, 01:43:04,VALID,1005.79,VALID,0,INVALID,110.665,VALID,0,VALID,25.0583,VALID,77,VALID,0.842969,
2014-06-09, 01:44:04,VALID,1005.82,VALID,0,INVALID,110.688,VALID,0,VALID,25.0388,VALID,84,VALID,1.76367,
2014-06-09, 01:45:04,VALID,1005.83,VALID,0,INVALID,110.673,VALID,0,VALID,25.0388,VALID,81,VALID,0.501172,
2014-06-09, 01:46:04,VALID,1005.79,VALID,0,INVALID,110.703,VALID,0,VALID,25.0407,VALID,77,VALID,1.4957,
2014-06-09, 01:47:04,VALID,1005.77,VALID,0,INVALID,110.695,VALID,0,VALID,25.0193,VALID,79,VALID,1.10039,
2014-06-09, 01:48:04,VALID,1005.77,VALID,0,INVALID,110.718,VALID,0,VALID,25.0407,VALID,77,VALID,1.78086,
2014-06-09, 01:49:04,VALID,1005.8,VALID,0,INVALID,110.718,VALID,0,VALID,25.0193,VALID,78,VALID,1.88867,
2014-06-09, 01:50:05,VALID,1005.8,VALID,0,INVALID,110.711,VALID,0,VALID,25.0388,VALID,74,VALID,1.58047,
2014-06-09, 01:51:05,VALID,1005.83,VALID,0,INVALID,110.703,VALID,0,VALID,25.0388,VALID,101,VALID,2.2375,
2014-06-09, 01:52:05,VALID,1005.81,VALID,0,INVALID,110.695,VALID,0,VALID,25.0602,VALID,82,VALID,1.47812,
2014-06-09, 01:53:05,VALID,1005.81,VALID,0,INVALID,110.688,VALID,0,VALID,25.0193,VALID,92,VALID,1.86133,
2014-06-09, 01:54:05,VALID,1005.8,VALID,0,INVALID,110.703,VALID,0,VALID,25.0193,VALID,83,VALID,1.74609,
2014-06-09, 01:55:05,VALID,1005.81,VALID,0,INVALID,110.673,VALID,0,VALID,25.0388,VALID,106,VALID,1.58672,
2014-06-09, 01:56:05,VALID,1005.84,VALID,0,INVALID,110.726,VALID,0,VALID,25.0193,VALID,86,VALID,2.23984,
2014-06-09, 01:57:05,VALID,1005.83,VALID,0,INVALID,110.688,VALID,0,VALID,25.0193,VALID,69,VALID,2.14648,
2014-06-09, 01:58:05,VALID,1005.82,VALID,0,INVALID,110.688,VALID,0,VALID,25.0407,VALID,85,VALID,2.2793,
2014-06-09, 01:59:05,VALID,1005.88,VALID,0,INVALID,110.688,VALID,0,VALID,25.0388,VALID,74,VALID,2.68867,
2014-06-09, 02:00:05,VALID,1005.93,VALID,0,INVALID,110.711,VALID,0,VALID,25.0583,VALID,74,VALID,2.04922,
2014-06-09, 02:01:05,VALID,1005.88,VALID,0,INVALID,110.711,VALID,0,VALID,25.0583,VALID,95,VALID,2.48789,
2014-06-09, 02:02:05,VALID,1005.92,VALID,0,INVALID,110.711,VALID,0,VALID,25.0797,VALID,105,VALID,2.09258,
2014-06-09, 02:03:05,VALID,1005.9,VALID,0,INVALID,110.703,VALID,0,VALID,25.0797,VALID,102,VALID,2.4375,
2014-06-09, 02:04:05,VALID,1005.89,VALID,0,INVALID,110.673,VALID,0,VALID,25.1187,VALID,103,VALID,1.89727,
2014-06-09, 02:05:05,VALID,1005.85,VALID,0,INVALID,110.695,VALID,0,VALID,25.0583,VALID,85,VALID,1.7168,
2014-06-09, 02:06:05,VALID,1005.82,VALID,0,INVALID,110.665,VALID,0,VALID,25.0778,VALID,70,VALID,1.77148,
2014-06-09, 02:07:05,VALID,1005.78,VALID,0,INVALID,110.619,VALID,0,VALID,25.0778,VALID,86,VALID,1.87656,
2014-06-09, 02:08:05,VALID,1005.74,VALID,0,INVALID,110.642,VALID,0,VALID,25.0583,VALID,83,VALID,1.7457,
2014-06-09, 02:09:05,VALID,1005.69,VALID,0,INVALID,110.581,VALID,0,VALID,25.0583,VALID,95,VALID,1.56367,
2014-06-09, 02:10:05,VALID,1005.69,VALID,0,INVALID,110.589,VALID,0,VALID,25.0583,VALID,59,VALID,2.07813,
2014-06-09, 02:11:05,VALID,1005.6,VALID,0,INVALID,110.642,VALID,0,VALID,25.0583,VALID,88,VALID,2.05352,
2014-06-09, 02:12:05,VALID,1005.56,VALID,0,INVALID,110.634,VALID,0,VALID,25.0602,VALID,86,VALID,1.64609,
2014-06-09, 02:13:05,VALID,1005.57,VALID,0,INVALID,110.604,VALID,0,VALID,25.0388,VALID,71,VALID,1.32148,
2014-06-09, 02:14:05,VALID,1005.53,VALID,0,INVALID,110.596,VALID,0,VALID,25.0388,VALID,78,VALID,1.77969,
2014-06-09, 02:15:05,VALID,1005.51,VALID,0,INVALID,110.566,VALID,0,VALID,25.0193,VALID,71,VALID,1.32148,
2014-06-09, 02:16:05,VALID,1005.48,VALID,0,INVALID,110.627,VALID,0,VALID,25.0388,VALID,97,VALID,1.73555,
2014-06-09, 02:17:05,VALID,1005.45,VALID,0,INVALID,110.589,VALID,0,VALID,25.0193,VALID,90,VALID,1.18711,
2014-06-09, 02:18:05,VALID,1005.44,VALID,0,INVALID,110.604,VALID,0,VALID,25.0193,VALID,68,VALID,0.7625,
2014-06-09, 02:19:05,VALID,1005.4,VALID,0,INVALID,110.612,VALID,0,VALID,24.9998,VALID,78,VALID,1.06484,
2014-06-09, 02:20:05,VALID,1005.37,VALID,0,INVALID,110.604,VALID,0,VALID,25.0212,VALID,90,VALID,1.00156,
2014-06-09, 02:21:05,VALID,1005.37,VALID,0,INVALID,110.642,VALID,0,VALID,25.0017,VALID,86,VALID,1.20664,
2014-06-09, 02:22:05,VALID,1005.32,VALID,0,INVALID,110.665,VALID,0,VALID,25.0017,VALID,97,VALID,1.4,
2014-06-09, 02:23:05,VALID,1005.32,VALID,0,INVALID,110.68,VALID,0,VALID,24.9803,VALID,82,VALID,1.10508,
2014-06-09, 02:24:05,VALID,1005.31,VALID,0,INVALID,110.68,VALID,0,VALID,24.9998,VALID,86,VALID,0.965625,
2014-06-09, 02:25:05,VALID,1005.25,VALID,0,INVALID,110.695,VALID,0,VALID,25.0193,VALID,100,VALID,1.01328,
2014-06-09, 02:26:05,VALID,1005.26,VALID,0,INVALID,110.718,VALID,0,VALID,25.0212,VALID,106,VALID,1.66367,
2014-06-09, 02:27:05,VALID,1005.23,VALID,0,INVALID,110.726,VALID,0,VALID,25.0193,VALID,118,VALID,1.68594,
2014-06-09, 02:28:05,VALID,1005.23,VALID,0,INVALID,110.657,VALID,0,VALID,25.0193,VALID,119,VALID,1.05547,
2014-06-09, 02:29:05,VALID,1005.17,VALID,0,INVALID,110.673,VALID,0,VALID,24.9998,VALID,74,VALID,2.05078,
2014-06-09, 02:30:05,VALID,1005.14,VALID,0,INVALID,110.665,VALID,0,VALID,25.0193,VALID,96,VALID,1.04883,
2014-06-09, 02:31:05,VALID,1005.13,VALID,0,INVALID,110.695,VALID,0,VALID,25.0212,VALID,95,VALID,1.29766,
2014-06-09, 02:32:05,VALID,1005.14,VALID,0,INVALID,110.718,VALID,0,VALID,24.9998,VALID,86,VALID,2.18984,
2014-06-09, 02:33:05,VALID,1005.16,VALID,0,INVALID,110.718,VALID,0,VALID,25.0193,VALID,105,VALID,1.2668,
2014-06-09, 02:34:05,VALID,1005.16,VALID,0,INVALID,110.711,VALID,0,VALID,25.0407,VALID,116,VALID,0.886719,
2014-06-09, 02:35:05,VALID,1005.14,VALID,0,INVALID,110.695,VALID,0,VALID,25.0193,VALID,86,VALID,1.25352,
2014-06-09, 02:36:05,VALID,1005.11,VALID,0,INVALID,110.703,VALID,0,VALID,25.0212,VALID,84,VALID,1.63672,
2014-06-09, 02:37:05,VALID,1005.15,VALID,0,INVALID,110.695,VALID,0,VALID,24.9998,VALID,69,VALID,0.7625,
2014-06-09, 02:38:05,VALID,1005.18,VALID,0,INVALID,110.711,VALID,0,VALID,24.9998,VALID,69,VALID,0.848437,
2014-06-09, 02:39:05,VALID,1005.22,VALID,0,INVALID,110.703,VALID,0,VALID,24.9998,VALID,69,VALID,0.935938,
2014-06-09, 02:40:05,VALID,1005.25,VALID,0,INVALID,110.703,VALID,0,VALID,24.9803,VALID,61,VALID,1.53945,
2014-06-09, 02:41:05,VALID,1005.23,VALID,0,INVALID,110.726,VALID,0,VALID,24.9608,VALID,78,VALID,1.15508,
2014-06-09, 02:42:05,VALID,1005.24,VALID,0,INVALID,110.734,VALID,0,VALID,24.9608,VALID,77,VALID,1.19727,
2014-06-09, 02:43:05,VALID,1005.26,VALID,0,INVALID,110.741,VALID,0,VALID,24.9608,VALID,85,VALID,1.82852,
2014-06-09, 02:44:05,VALID,1005.28,VALID,0,INVALID,110.779,VALID,0,VALID,24.9413,VALID,87,VALID,1.78555,
2014-06-09, 02:45:05,VALID,1005.28,VALID,0,INVALID,110.779,VALID,0,VALID,24.9608,VALID,77,VALID,1.68438,
2014-06-09, 02:46:05,VALID,1005.29,VALID,0,INVALID,110.772,VALID,0,VALID,24.9627,VALID,79,VALID,1.06523,
2014-06-09, 02:47:05,VALID,1005.27,VALID,0,INVALID,110.795,VALID,0,VALID,24.9822,VALID,94,VALID,1.2918,
2014-06-09, 02:48:05,VALID,1005.27,VALID,0,INVALID,110.81,VALID,0,VALID,24.9822,VALID,81,VALID,1.72148,
2014-06-09, 02:49:05,VALID,1005.28,VALID,0,INVALID,110.825,VALID,0,VALID,24.9608,VALID,91,VALID,0.819922,
2014-06-09, 02:50:05,VALID,1005.26,VALID,0,INVALID,110.817,VALID,0,VALID,24.9803,VALID,93,VALID,1.43438,
2014-06-09, 02:51:05,VALID,1005.28,VALID,0,INVALID,110.833,VALID,0,VALID,25.0017,VALID,104,VALID,1.83984,
2014-06-09, 02:52:05,VALID,1005.29,VALID,0,INVALID,110.825,VALID,0,VALID,24.9803,VALID,100,VALID,1.45508,
2014-06-09, 02:53:05,VALID,1005.32,VALID,0,INVALID,110.825,VALID,0,VALID,24.9608,VALID,108,VALID,1.85742,
2014-06-09, 02:54:05,VALID,1005.3,VALID,0,INVALID,110.833,VALID,0,VALID,24.9608,VALID,84,VALID,2.43281,
2014-06-09, 02:55:05,VALID,1005.32,VALID,0,INVALID,110.81,VALID,0.112112,VALID,24.9608,VALID,100,VALID,2.02344,
2014-06-09, 02:56:05,VALID,1005.31,VALID,0,INVALID,110.802,VALID,0,VALID,24.9803,VALID,93,VALID,2.01484,
2014-06-09, 02:57:05,VALID,1005.3,VALID,0,INVALID,110.817,VALID,0,VALID,24.9803,VALID,94,VALID,1.7625,
2014-06-09, 02:58:05,VALID,1005.29,VALID,0,INVALID,110.81,VALID,0,VALID,24.9803,VALID,86,VALID,2.17266,
2014-06-09, 02:59:05,VALID,1005.3,VALID,0,INVALID,110.787,VALID,0,VALID,24.9803,VALID,86,VALID,2.9582,
2014-06-09, 03:00:05,VALID,1005.31,VALID,0,INVALID,110.817,VALID,0,VALID,24.9803,VALID,89,VALID,2.35391,
2014-06-09, 03:01:05,VALID,1005.32,VALID,0,INVALID,110.795,VALID,0,VALID,24.9803,VALID,86,VALID,1.82227,
2014-06-09, 03:02:05,VALID,1005.32,VALID,0,INVALID,110.787,VALID,0,VALID,24.9803,VALID,92,VALID,1.50625,
2014-06-09, 03:03:05,VALID,1005.31,VALID,0,INVALID,110.795,VALID,0,VALID,24.9608,VALID,90,VALID,1.87578,
2014-06-09, 03:04:05,VALID,1005.34,VALID,0,INVALID,110.81,VALID,0,VALID,24.9803,VALID,90,VALID,2.05742,
2014-06-09, 03:05:05,VALID,1005.3,VALID,0,INVALID,110.795,VALID,0,VALID,24.9803,VALID,109,VALID,1.63555,
2014-06-09, 03:06:05,VALID,1005.31,VALID,0,INVALID,110.802,VALID,0,VALID,24.9803,VALID,82,VALID,1.6125,
2014-06-09, 03:07:05,VALID,1005.28,VALID,0,INVALID,110.795,VALID,0.112112,VALID,24.9608,VALID,83,VALID,1.2707,
2014-06-09, 03:08:05,VALID,1005.29,VALID,0,INVALID,110.802,VALID,0,VALID,24.9608,VALID,108,VALID,1.72109,
2014-06-09, 03:09:05,VALID,1005.26,VALID,0,INVALID,110.833,VALID,0,VALID,24.9608,VALID,103,VALID,1.00625,
2014-06-09, 03:10:05,VALID,1005.27,VALID,0,INVALID,110.848,VALID,0,VALID,24.9608,VALID,78,VALID,0.936719,
2014-06-09, 03:11:05,VALID,1005.2,VALID,0,INVALID,110.817,VALID,0,VALID,24.9803,VALID,81,VALID,0.932422,
2014-06-09, 03:12:05,VALID,1005.19,VALID,0,INVALID,110.856,VALID,0,VALID,24.9608,VALID,100,VALID,1.47969,
2014-06-09, 03:13:05,VALID,1005.19,VALID,0,INVALID,110.863,VALID,0,VALID,24.9589,VALID,114,VALID,0.794141,
2014-06-09, 03:14:05,VALID,1005.17,VALID,0,INVALID,110.871,VALID,0.112112,VALID,24.9608,VALID,102,VALID,1.75937,
2014-06-09, 03:15:05,VALID,1005.1,VALID,0,INVALID,110.848,VALID,0,VALID,25.0017,VALID,93,VALID,0.921094,
2014-06-09, 03:16:05,VALID,1005.09,VALID,0,INVALID,110.825,VALID,0,VALID,24.9803,VALID,136,VALID,1.1207,
2014-06-09, 03:17:05,VALID,1005.02,VALID,0,INVALID,110.81,VALID,0,VALID,24.9608,VALID,109,VALID,2.21484,
2014-06-09, 03:18:05,VALID,1005.01,VALID,0,INVALID,110.718,VALID,0,VALID,24.9998,VALID,126,VALID,1.78555,
2014-06-09, 03:19:05,VALID,1004.96,VALID,0,INVALID,110.612,VALID,0,VALID,25.0193,VALID,117,VALID,1.82813,
2014-06-09, 03:20:05,VALID,1004.98,VALID,0,INVALID,110.467,VALID,0,VALID,25.0388,VALID,133,VALID,1.57344,
2014-06-09, 03:21:05,VALID,1004.97,VALID,0,INVALID,110.39,VALID,0,VALID,25.0193,VALID,131,VALID,1.65586,
2014-06-09, 03:22:05,VALID,1004.91,VALID,0,INVALID,110.314,VALID,0,VALID,25.0193,VALID,130,VALID,1.33906,
2014-06-09, 03:23:05,VALID,1004.96,VALID,0,INVALID,110.261,VALID,0,VALID,25.0583,VALID,135,VALID,1.4043,
2014-06-09, 03:24:05,VALID,1004.93,VALID,0,INVALID,110.108,VALID,0,VALID,25.0583,VALID,121,VALID,2.73008,
2014-06-09, 03:25:05,VALID,1004.94,VALID,0,INVALID,109.918,VALID,0,VALID,25.0778,VALID,117,VALID,1.85195,
2014-06-09, 03:26:05,VALID,1004.97,VALID,0,INVALID,109.879,VALID,0,VALID,25.0973,VALID,114,VALID,0.835156,
2014-06-09, 03:27:05,VALID,1004.98,VALID,0,INVALID,109.796,VALID,0,VALID,25.0973,VALID,132,VALID,2.19258,
2014-06-09, 03:28:05,VALID,1005.01,VALID,0,INVALID,109.727,VALID,0,VALID,25.1381,VALID,128,VALID,0.836328,
2014-06-09, 03:29:05,VALID,1004.97,VALID,0,INVALID,109.674,VALID,0,VALID,25.0973,VALID,100,VALID,2.2625,
2014-06-09, 03:30:05,VALID,1005.01,VALID,0,INVALID,109.552,VALID,0,VALID,25.1167,VALID,107,VALID,1.66172,
2014-06-09, 03:31:05,VALID,1005.03,VALID,0,INVALID,109.468,VALID,0,VALID,25.0973,VALID,83,VALID,2.41484,
2014-06-09, 03:32:05,VALID,1005.03,VALID,0,INVALID,109.384,VALID,0,VALID,25.0973,VALID,80,VALID,1.77266,
2014-06-09, 03:33:05,VALID,1005.05,VALID,0,INVALID,109.3,VALID,0,VALID,25.0973,VALID,70,VALID,1.88437,
2014-06-09, 03:34:05,VALID,1005.06,VALID,0,INVALID,109.292,VALID,0,VALID,25.0973,VALID,81,VALID,1.17617,
2014-06-09, 03:35:05,VALID,1005.05,VALID,0,INVALID,109.308,VALID,0,VALID,25.0564,VALID,75,VALID,1.06406,
2014-06-09, 03:36:05,VALID,1005.03,VALID,0,INVALID,109.376,VALID,0,VALID,25.0388,VALID,57,VALID,0.603125,
2014-06-09, 03:37:05,VALID,1005.02,VALID,0,INVALID,109.521,VALID,0,VALID,25.0193,VALID,63,VALID,1.0418,
2014-06-09, 03:38:05,VALID,1005,VALID,0,INVALID,109.635,VALID,0,VALID,24.9803,VALID,67,VALID,0.880078,
2014-06-09, 03:39:05,VALID,1005.01,VALID,0,INVALID,109.788,VALID,0,VALID,24.9822,VALID,53,VALID,0.554297,
2014-06-09, 03:40:05,VALID,1005.01,VALID,0,INVALID,109.857,VALID,0,VALID,24.9413,VALID,53,VALID,0.576563,
2014-06-09, 03:41:05,VALID,1005,VALID,0,INVALID,109.963,VALID,0,VALID,24.9023,VALID,53,VALID,0.690625,
2014-06-09, 03:42:05,VALID,1004.95,VALID,0,INVALID,110.047,VALID,0,VALID,24.8828,VALID,53,VALID,0.640625,
2014-06-09, 03:43:05,VALID,1004.95,VALID,0,INVALID,110.085,VALID,0,VALID,24.8633,VALID,53,VALID,0.73125,